QPF
0.00 0.00 0.00 0.00 0.00 0.00 0.00 0.00 0.00 0.00 0.00 0.00 0.00 0.00 0.00 0.00 0.00 0.00 0.00 0.00 0.00 0.00 0.00 0.00 0.00 0.00 0.00 0.00 0.00 0.00 0.00 0.00 0.00 0.00 0.00 0.00 0.00 0.00 0.00 0.00 0.00 0.00 0.00
0.00 0.00 0.00 0.00 0.00 0.00 0.00 0.00 0.00 0.00 0.00 0.00 0.00 0.00 0.00 0.00 0.00 0.00 0.00 0.00 0.00 0.00 0.00 0.00 0.00 0.00 0.00 0.00 0.00 0.00 0.00 0.00 0.00 0.00 0.00 0.00 0.00 0.00 0.00 0.00 0.00 0.00 0.00
0.00 0.00 0.00 0.00 0.00 0.00 0.00 0.00 0.00 0.00 0.00 0.00 0.00 0.00 0.00 0.00 0.00 0.00 0.00 0.00 0.00 0.00 0.00 0.00 0.00 0.00 0.00 0.00 0.00 0.00 0.00 0.00 0.00 0.00 0.00 0.00 0.00 0.00 0.00 0.00 0.00 0.00 0.00
0.00 0.00 0.00 0.00 0.00 0.00 0.00 0.00 0.00 0.00 0.00 0.00 0.00 0.00 0.00 0.00 0.00 0.00 0.00 0.00 0.00 0.00 0.00 0.00 0.00 0.00 0.00 0.00 0.00 0.00 0.00 0.00 0.00 0.00 0.00 0.00 0.00 0.00 0.00 0.00 0.00 0.00 0.00
0.00 0.00 0.00 0.00 0.00 0.00 0.00 0.00 0.00 0.00 0.00 0.00 0.00 0.00 0.00 0.00 0.00 0.00 0.00 0.00 0.00 0.00 0.00 0.00 0.00 0.00 0.00 0.00 0.00 0.00 0.00 0.00 0.00 0.00 0.00 0.00 0.00 0.00 0.00 0.00 0.00 0.00 0.00
0.01 0.01 0.00 0.00 0.00 0.00 0.00 0.00 0.00 0.00 0.00 0.00 0.00 0.00 0.00 0.00 0.00 0.00 0.00 0.00 0.00 0.00 0.00 0.00 0.00 0.00 0.00 0.00 0.00 0.00 0.00 0.00 0.00 0.00 0.00 0.00 0.00 0.00 0.00 0.00 0.00 0.00 0.00
0.01 0.01 0.01 0.00 0.00 0.00 0.00 0.00 0.00 0.00 0.00 0.00 0.00 0.00 0.00 0.00 0.00 0.00 0.00 0.00 0.00 0.00 0.00 0.00 0.00 0.00 0.00 0.00 0.00 0.00 0.00 0.00 0.00 0.00 0.00 0.00 0.00 0.00 0.00 0.00 0.00 0.00 0.00
0.01 0.01 0.01 0.01 0.01 0.01 0.01 0.00 0.00 0.00 0.00 0.00 0.00 0.00 0.00 0.00 0.00 0.00 0.00 0.00 0.00 0.00 0.00 0.00 0.00 0.00 0.00 0.00 0.00 0.00 0.00 0.00 0.00 0.00 0.00 0.00 0.00 0.00 0.00 0.00 0.00 0.00 0.00
0.01 0.01 0.01 0.02 0.02 0.02 0.01 0.01 0.01 0.01 0.00 0.00 0.00 0.00 0.00 0.00 0.00 0.00 0.00 0.00 0.00 0.00 0.00 0.00 0.00 0.00 0.00 0.00 0.00 0.00 0.00 0.00 0.00 0.00 0.00 0.00 0.00 0.00 0.00 0.00 0.00 0.00 0.00
0.01 0.01 0.01 0.02 0.02 0.03 0.03 0.03 0.04 0.03 0.01 0.01 0.01 0.00 0.00 0.00 0.00 0.00 0.00 0.00 0.00 0.00 0.00 0.00 0.00 0.00 0.00 0.00 0.00 0.00 0.00 0.00 0.00 0.00 0.00 0.00 0.00 0.00 0.00 0.00 0.00 0.00 0.00
0.01 0.01 0.02 0.02 0.02 0.03 0.04 0.06 0.06 0.05 0.04 0.03 0.02 0.03 0.02 0.01 0.00 0.00 0.00 0.00 0.00 0.00 0.00 0.00 0.00 0.00 0.00 0.00 0.00 0.00 0.00 0.00 0.00 0.00 0.00 0.00 0.00 0.00 0.00 0.00 0.00 0.00 0.00
0.01 0.02 0.03 0.02 0.02 0.03 0.05 0.07 0.08 0.08 0.09 0.08 0.05 0.05 0.05 0.04 0.03 0.02 0.01 0.01 0.01 0.01 0.00 0.00 0.00 0.00 0.00 0.00 0.00 0.00 0.00 0.00 0.00 0.00 0.00 0.00 0.00 0.00 0.00 0.00 0.00 0.00 0.00
0.02 0.03 0.03 0.03 0.04 0.04 0.06 0.08 0.09 0.09 0.11 0.11 0.09 0.08 0.10 0.09 0.07 0.06 0.05 0.03 0.02 0.01 0.01 0.01 0.00 0.00 0.00 0.00 0.00 0.00 0.00 0.00 0.00 0.00 0.00 0.00 0.00 0.00 0.00 0.00 0.00 0.00 0.00
0.01 0.03 0.04 0.05 0.05 0.06 0.06 0.08 0.09 0.10 0.12 0.12 0.12 0.11 0.10 0.11 0.10 0.10 0.10 0.09 0.08 0.06 0.04 0.03 0.03 0.02 0.01 0.01 0.01 0.01 0.01 0.00 0.00 0.00 0.00 0.00 0.00 0.00 0.00 0.00 0.00 0.00 0.00
0.02 0.03 0.05 0.06 0.06 0.07 0.08 0.09 0.09 0.10 0.12 0.13 0.13 0.13 0.12 0.12 0.12 0.12 0.13 0.15 0.17 0.16 0.13 0.10 0.09 0.08 0.06 0.05 0.04 0.03 0.02 0.02 0.01 0.01 0.00 0.00 0.00 0.00 0.00 0.00 0.00 0.00 0.00
0.01 0.02 0.04 0.05 0.06 0.07 0.08 0.10 0.10 0.11 0.12 0.12 0.13 0.13 0.13 0.13 0.13 0.13 0.15 0.18 0.20 0.22 0.21 0.16 0.13 0.12 0.12 0.10 0.08 0.05 0.03 0.02 0.01 0.01 0.01 0.00 0.00 0.00 0.00 0.00 0.00 0.00 0.00
0.00 0.01 0.02 0.04 0.05 0.07 0.08 0.08 0.09 0.10 0.11 0.10 0.10 0.11 0.12 0.12 0.13 0.14 0.16 0.18 0.21 0.24 0.27 0.25 0.22 0.21 0.18 0.14 0.10 0.06 0.03 0.02 0.01 0.01 0.01 0.00 0.00 0.00 0.00 0.00 0.00 0.00 0.00
0.01 0.01 0.02 0.04 0.05 0.06 0.07 0.07 0.08 0.08 0.08 0.08 0.09 0.09 0.10 0.10 0.12 0.14 0.16 0.19 0.21 0.23 0.25 0.26 0.23 0.19 0.15 0.11 0.07 0.04 0.02 0.01 0.01 0.00 0.00 0.00 0.00 0.00 0.00 0.00 0.00 0.00 0.00
0.02 0.02 0.03 0.05 0.05 0.05 0.06 0.06 0.06 0.06 0.06 0.06 0.06 0.07 0.08 0.09 0.11 0.12 0.14 0.16 0.17 0.18 0.18 0.18 0.16 0.13 0.10 0.07 0.05 0.03 0.02 0.01 0.00 0.00 0.00 0.00 0.00 0.00 0.00 0.00 0.00 0.00 0.00
0.02 0.02 0.02 0.03 0.03 0.03 0.04 0.04 0.04 0.05 0.05 0.05 0.06 0.07 0.08 0.09 0.11 0.12 0.14 0.14 0.14 0.14 0.13 0.12 0.11 0.08 0.06 0.05 0.03 0.02 0.01 0.01 0.00 0.00 0.00 0.00 0.00 0.00 0.00 0.00 0.00 0.00 0.00
0.01 0.01 0.01 0.02 0.02 0.02 0.02 0.02 0.03 0.05 0.06 0.07 0.08 0.10 0.12 0.15 0.15 0.14 0.13 0.12 0.11 0.10 0.09 0.07 0.06 0.05 0.04 0.03 0.02 0.01 0.00 0.00 0.00 0.00 0.00 0.00 0.00 0.00 0.00 0.00 0.00 0.00 0.00
0.00 0.00 0.01 0.01 0.02 0.03 0.03 0.03 0.03 0.03 0.05 0.07 0.10 0.13 0.15 0.17 0.15 0.14 0.12 0.09 0.08 0.07 0.06 0.05 0.04 0.03 0.02 0.01 0.00 0.00 0.00 0.00 0.00 0.00 0.00 0.00 0.00 0.00 0.00 0.00 0.00 0.00 0.00
0.01 0.01 0.01 0.02 0.03 0.04 0.06 0.05 0.06 0.05 0.07 0.08 0.09 0.10 0.09 0.09 0.09 0.07 0.07 0.06 0.06 0.05 0.03 0.02 0.01 0.01 0.00 0.00 0.00 0.00 0.00 0.00 0.00 0.00 0.00 0.00 0.00 0.00 0.00 0.00 0.00 0.00 0.00
0.01 0.01 0.02 0.02 0.03 0.04 0.05 0.05 0.06 0.06 0.07 0.08 0.08 0.07 0.05 0.04 0.03 0.02 0.02 0.01 0.01 0.01 0.01 0.00 0.00 0.00 0.00 0.00 0.00 0.00 0.00 0.00 0.00 0.00 0.00 0.00 0.00 0.00 0.00 0.00 0.00 0.00 0.00
0.02 0.02 0.02 0.02 0.03 0.05 0.06 0.06 0.05 0.05 0.05 0.05 0.04 0.03 0.02 0.01 0.01 0.01 0.01 0.00 0.00 0.00 0.00 0.00 0.00 0.00 0.00 0.00 0.00 0.00 0.00 0.00 0.00 0.00 0.00 0.00 0.00 0.00 0.00 0.00 0.00 0.00 0.00
0.02 0.03 0.03 0.03 0.03 0.04 0.04 0.04 0.04 0.04 0.03 0.02 0.01 0.01 0.00 0.00 0.00 0.00 0.00 0.00 0.00 0.00 0.00 0.00 0.00 0.00 0.00 0.00 0.00 0.00 0.00 0.00 0.00 0.00 0.00 0.00 0.00 0.00 0.00 0.00 0.00 0.00 0.00
MSLP
1017.76 1017.95 1018.12 1018.31 1018.53 1018.77 1019.03 1019.29 1019.54 1019.74 1019.89 1019.98 1020.05 1020.10 1020.17 1020.30 1020.48 1020.74 1021.04 1021.38 1021.72 1022.05 1022.34 1022.59 1022.79 1022.96 1023.10 1023.22 1023.33 1023.44 1023.54 1023.63 1023.72 1023.79 1023.87 1023.94 1024.00 1024.06 1024.09 1024.11 1024.10 1024.05 1023.97
1017.31 1017.47 1017.64 1017.83 1018.06 1018.33 1018.62 1018.91 1019.19 1019.43 1019.62 1019.77 1019.88 1019.98 1020.09 1020.23 1020.43 1020.68 1020.97 1021.30 1021.64 1021.97 1022.28 1022.56 1022.80 1023.02 1023.20 1023.36 1023.49 1023.60 1023.69 1023.77 1023.83 1023.89 1023.96 1024.03 1024.10 1024.17 1024.24 1024.28 1024.29 1024.27 1024.21
1016.85 1016.99 1017.16 1017.37 1017.62 1017.92 1018.24 1018.58 1018.90 1019.18 1019.43 1019.62 1019.78 1019.92 1020.07 1020.23 1020.42 1020.65 1020.91 1021.20 1021.51 1021.82 1022.13 1022.44 1022.72 1022.98 1023.21 1023.41 1023.58 1023.70 1023.80 1023.87 1023.92 1023.96 1024.01 1024.06 1024.13 1024.21 1024.29 1024.35 1024.38 1024.38 1024.36
1016.38 1016.53 1016.71 1016.95 1017.23 1017.56 1017.92 1018.30 1018.66 1018.99 1019.28 1019.53 1019.74 1019.92 1020.09 1020.26 1020.44 1020.63 1020.85 1021.08 1021.34 1021.62 1021.92 1022.22 1022.53 1022.84 1023.12 1023.37 1023.58 1023.74 1023.86 1023.93 1023.97 1024.00 1024.03 1024.08 1024.13 1024.20 1024.28 1024.35 1024.39 1024.41 1024.40
1015.92 1016.08 1016.29 1016.56 1016.88 1017.24 1017.64 1018.04 1018.44 1018.81 1019.15 1019.44 1019.70 1019.92 1020.11 1020.28 1020.44 1020.60 1020.76 1020.93 1021.13 1021.36 1021.63 1021.93 1022.25 1022.59 1022.93 1023.23 1023.50 1023.70 1023.85 1023.94 1023.99 1024.01 1024.03 1024.06 1024.11 1024.16 1024.23 1024.29 1024.33 1024.35 1024.35
1015.45 1015.64 1015.88 1016.18 1016.53 1016.92 1017.34 1017.77 1018.19 1018.59 1018.95 1019.28 1019.58 1019.83 1020.05 1020.23 1020.38 1020.50 1020.61 1020.73 1020.87 1021.05 1021.28 1021.57 1021.90 1022.27 1022.64 1023.00 1023.31 1023.57 1023.76 1023.88 1023.95 1023.98 1024.00 1024.02 1024.04 1024.09 1024.13 1024.18 1024.21 1024.23 1024.22
1014.96 1015.17 1015.43 1015.76 1016.14 1016.55 1016.98 1017.41 1017.84 1018.25 1018.64 1018.99 1019.32 1019.61 1019.85 1020.05 1020.20 1020.30 1020.39 1020.46 1020.56 1020.70 1020.90 1021.16 1021.50 1021.88 1022.28 1022.68 1023.04 1023.34 1023.57 1023.73 1023.83 1023.88 1023.90 1023.92 1023.94 1023.97 1024.00 1024.03 1024.04 1024.04 1024.03
1014.44 1014.66 1014.94 1015.29 1015.67 1016.08 1016.51 1016.93 1017.35 1017.76 1018.15 1018.53 1018.88 1019.20 1019.48 1019.70 1019.87 1019.99 1020.06 1020.12 1020.20 1020.31 1020.49 1020.74 1021.07 1021.46 1021.88 1022.31 1022.70 1023.04 1023.31 1023.50 1023.63 1023.70 1023.74 1023.76 1023.78 1023.80 1023.82 1023.83 1023.83 1023.82 1023.79
1013.89 1014.11 1014.39 1014.73 1015.11 1015.51 1015.92 1016.32 1016.72 1017.11 1017.50 1017.88 1018.26 1018.61 1018.92 1019.19 1019.39 1019.54 1019.64 1019.72 1019.80 1019.92 1020.09 1020.34 1020.67 1021.06 1021.49 1021.92 1022.33 1022.69 1022.99 1023.20 1023.36 1023.45 1023.51 1023.55 1023.57 1023.59 1023.60 1023.61 1023.60 1023.57 1023.53
1013.34 1013.53 1013.80 1014.12 1014.48 1014.85 1015.22 1015.59 1015.96 1016.32 1016.70 1017.09 1017.48 1017.86 1018.22 1018.53 1018.79 1018.99 1019.14 1019.26 1019.38 1019.53 1019.72 1019.98 1020.32 1020.71 1021.13 1021.56 1021.97 1022.34 1022.64 1022.88 1023.05 1023.17 1023.24 1023.30 1023.34 1023.36 1023.37 1023.37 1023.36 1023.32 1023.27
1012.81 1012.98 1013.21 1013.50 1013.82 1014.15 1014.48 1014.80 1015.13 1015.48 1015.84 1016.22 1016.62 1017.02 1017.42 1017.78 1018.10 1018.36 1018.58 1018.77 1018.96 1019.16 1019.40 1019.68 1020.03 1020.43 1020.85 1021.27 1021.67 1022.03 1022.33 1022.57 1022.75 1022.88 1022.97 1023.04 1023.09 1023.13 1023.15 1023.15 1023.13 1023.09 1023.04
1012.36 1012.48 1012.68 1012.92 1013.19 1013.47 1013.75 1014.04 1014.33 1014.64 1014.98 1015.35 1015.75 1016.17 1016.60 1017.00 1017.38 1017.72 1018.01 1018.29 1018.55 1018.82 1019.12 1019.45 1019.83 1020.24 1020.66 1021.07 1021.46 1021.80 1022.09 1022.32 1022.49 1022.63 1022.73 1022.81 1022.87 1022.91 1022.94 1022.94 1022.93 1022.89 1022.83
1012.03 1012.11 1012.25 1012.45 1012.66 1012.89 1013.13 1013.36 1013.62 1013.89 1014.21 1014.56 1014.96 1015.38 1015.83 1016.27 1016.69 1017.09 1017.47 1017.82 1018.17 1018.52 1018.89 1019.28 1019.70 1020.13 1020.56 1020.97 1021.34 1021.66 1021.93 1022.14 1022.31 1022.44 1022.53 1022.61 1022.68 1022.72 1022.75 1022.75 1022.74 1022.70 1022.64
1011.87 1011.90 1012.00 1012.14 1012.31 1012.49 1012.67 1012.87 1013.08 1013.32 1013.60 1013.93 1014.31 1014.73 1015.18 1015.64 1016.09 1016.54 1016.98 1017.41 1017.84 1018.27 1018.71 1019.16 1019.63 1020.09 1020.53 1020.93 1021.29 1021.60 1021.85 1022.04 1022.19 1022.30 1022.38 1022.45 1022.50 1022.53 1022.55 1022.55 1022.53 1022.48 1022.42
1011.91 1011.91 1011.97 1012.06 1012.18 1012.31 1012.44 1012.59 1012.77 1012.97 1013.22 1013.52 1013.88 1014.28 1014.71 1015.17 1015.64 1016.12 1016.60 1017.08 1017.57 1018.07 1018.57 1019.08 1019.59 1020.08 1020.53 1020.94 1021.30 1021.59 1021.81 1021.98 1022.10 1022.18 1022.24 1022.28 1022.30 1022.31 1022.31 1022.30 1022.26 1022.21 1022.14
1012.17 1012.15 1012.17 1012.23 1012.30 1012.38 1012.48 1012.59 1012.72 1012.89 1013.11 1013.38 1013.70 1014.07 1014.48 1014.92 1015.39 1015.87 1016.37 1016.88 1017.40 1017.94 1018.49 1019.03 1019.57 1020.08 1020.54 1020.95 1021.29 1021.57 1021.77 1021.92 1022.00 1022.05 1022.07 1022.07 1022.05 1022.03 1022.00 1021.95 1021.90 1021.84 1021.76
1012.66 1012.63 1012.63 1012.65 1012.69 1012.74 1012.80 1012.87 1012.98 1013.12 1013.30 1013.53 1013.82 1014.15 1014.52 1014.93 1015.37 1015.84 1016.33 1016.83 1017.36 1017.90 1018.45 1019.00 1019.54 1020.05 1020.51 1020.91 1021.24 1021.50 1021.68 1021.80 1021.85 1021.86 1021.84 1021.79 1021.72 1021.64 1021.56 1021.48 1021.40 1021.33 1021.25
1013.36 1013.32 1013.31 1013.32 1013.33 1013.35 1013.38 1013.43 1013.51 1013.62 1013.77 1013.97 1014.22 1014.52 1014.85 1015.22 1015.61 1016.04 1016.48 1016.95 1017.44 1017.96 1018.48 1019.00 1019.51 1019.99 1020.43 1020.80 1021.11 1021.35 1021.51 1021.60 1021.62 1021.59 1021.52 1021.42 1021.29 1021.16 1021.03 1020.91 1020.79 1020.69 1020.61
1014.22 1014.19 1014.18 1014.18 1014.17 1014.18 1014.19 1014.22 1014.28 1014.37 1014.50 1014.67 1014.89 1015.14 1015.43 1015.74 1016.08 1016.45 1016.83 1017.24 1017.66 1018.10 1018.56 1019.02 1019.46 1019.89 1020.28 1020.62 1020.90 1021.11 1021.25 1021.31 1021.31 1021.25 1021.14 1020.99 1020.81 1020.62 1020.43 1020.25 1020.09 1019.96 1019.87
1015.20 1015.19 1015.18 1015.18 1015.17 1015.16 1015.16 1015.18 1015.23 1015.30 1015.42 1015.56 1015.75 1015.96 1016.21 1016.47 1016.74 1017.03 1017.34 1017.65 1017.98 1018.33 1018.69 1019.05 1019.41 1019.76 1020.09 1020.38 1020.62 1020.80 1020.92 1020.98 1020.96 1020.88 1020.73 1020.54 1020.31 1020.06 1019.81 1019.57 1019.37 1019.20 1019.08
1016.24 1016.24 1016.24 1016.24 1016.24 1016.23 1016.23 1016.24 1016.28 1016.34 1016.44 1016.57 1016.72 1016.90 1017.09 1017.30 1017.51 1017.72 1017.93 1018.14 1018.37 1018.60 1018.85 1019.10 1019.36 1019.62 1019.87 1020.11 1020.31 1020.47 1020.58 1020.63 1020.61 1020.52 1020.36 1020.14 1019.87 1019.57 1019.26 1018.96 1018.70 1018.48 1018.32
1017.27 1017.29 1017.30 1017.30 1017.29 1017.29 1017.28 1017.29 1017.32 1017.38 1017.46 1017.57 1017.70 1017.84 1017.99 1018.13 1018.27 1018.40 1018.53 1018.64 1018.76 1018.88 1019.01 1019.15 1019.31 1019.48 1019.66 1019.84 1020.01 1020.16 1020.27 1020.32 1020.32 1020.23 1020.07 1019.84 1019.54 1019.19 1018.83 1018.47 1018.14 1017.86 1017.64
1018.24 1018.26 1018.27 1018.27 1018.27 1018.26 1018.25 1018.26 1018.28 1018.32 1018.39 1018.48 1018.57 1018.68 1018.78 1018.87 1018.95 1019.01 1019.05 1019.08 1019.10 1019.12 1019.15 1019.19 1019.26 1019.35 1019.47 1019.60 1019.75 1019.89 1020.01 1020.09 1020.10 1020.04 1019.89 1019.65 1019.34 1018.97 1018.56 1018.14 1017.74 1017.38 1017.09
1019.08 1019.10 1019.11 1019.10 1019.09 1019.07 1019.06 1019.06 1019.07 1019.09 1019.14 1019.19 1019.26 1019.32 1019.38 1019.43 1019.46 1019.46 1019.44 1019.40 1019.35 1019.29 1019.24 1019.21 1019.21 1019.24 1019.32 1019.42 1019.55 1019.70 1019.83 1019.93 1019.97 1019.93 1019.80 1019.57 1019.26 1018.86 1018.42 1017.94 1017.48 1017.05 1016.68
1019.76 1019.77 1019.76 1019.75 1019.73 1019.70 1019.67 1019.66 1019.65 1019.65 1019.66 1019.69 1019.72 1019.74 1019.76 1019.77 1019.76 1019.72 1019.66 1019.58 1019.48 1019.38 1019.29 1019.21 1019.16 1019.16 1019.20 1019.29 1019.41 1019.56 1019.70 1019.82 1019.88 1019.86 1019.75 1019.54 1019.23 1018.82 1018.35 1017.84 1017.32 1016.82 1016.38
1020.26 1020.26 1020.24 1020.21 1020.17 1020.13 1020.09 1020.05 1020.02 1020.00 1019.98 1019.96 1019.96 1019.95 1019.93 1019.91 1019.87 1019.81 1019.73 1019.63 1019.52 1019.40 1019.29 1019.19 1019.13 1019.10 1019.13 1019.20 1019.31 1019.44 1019.58 1019.70 1019.77 1019.77 1019.67 1019.46 1019.16 1018.75 1018.27 1017.73 1017.18 1016.63 1016.13
Thickness
5695 5693 5690 5688 5685 5683 5680 5677 5675 5675 5673 5671 5669 5668 5667 5665 5663 5660 5656 5653 5650 5647 5645 5642 5639 5637 5634 5632 5630 5628 5626 5624 5623 5621 5619 5618 5618 5617 5617 5617 5617 5617 5618
5693 5690 5688 5687 5685 5682 5680 5676 5674 5672 5670 5668 5665 5663 5662 5660 5658 5656 5652 5649 5645 5642 5640 5637 5634 5632 5629 5627 5624 5622 5620 5619 5617 5615 5614 5612 5611 5611 5610 5610 5610 5610 5610
5690 5687 5685 5684 5682 5679 5677 5674 5671 5669 5667 5664 5660 5659 5657 5655 5653 5651 5648 5645 5641 5638 5635 5633 5630 5627 5624 5622 5620 5617 5615 5613 5611 5609 5608 5606 5605 5604 5604 5603 5603 5603 5603
5687 5685 5682 5680 5678 5676 5673 5670 5667 5664 5661 5658 5655 5653 5652 5650 5648 5646 5644 5641 5637 5633 5630 5628 5625 5622 5619 5617 5614 5612 5610 5607 5606 5604 5602 5601 5599 5598 5598 5597 5596 5596 5596
5684 5682 5679 5677 5674 5671 5668 5666 5662 5658 5654 5651 5649 5647 5646 5644 5642 5641 5639 5636 5633 5630 5626 5622 5619 5617 5614 5611 5609 5607 5604 5602 5600 5598 5597 5595 5594 5593 5591 5591 5590 5590 5589
5681 5678 5676 5673 5670 5666 5663 5660 5655 5652 5648 5645 5642 5639 5638 5637 5635 5634 5633 5631 5628 5625 5622 5618 5614 5611 5608 5606 5603 5601 5599 5596 5594 5593 5591 5589 5588 5587 5586 5585 5584 5584 5583
5675 5673 5672 5669 5666 5663 5659 5655 5650 5645 5641 5637 5630 5626 5626 5628 5628 5628 5627 5625 5623 5620 5617 5613 5609 5606 5603 5600 5597 5594 5592 5590 5588 5586 5584 5583 5581 5580 5579 5578 5578 5577 5577
5670 5667 5665 5663 5660 5657 5653 5650 5645 5639 5634 5631 5623 5615 5611 5613 5618 5622 5620 5619 5617 5615 5612 5609 5605 5601 5597 5594 5591 5588 5585 5583 5581 5579 5577 5576 5574 5573 5572 5571 5570 5570 5569
5666 5662 5659 5656 5653 5650 5647 5644 5640 5634 5628 5624 5622 5616 5610 5611 5609 5611 5614 5613 5611 5609 5606 5603 5600 5596 5592 5589 5585 5581 5578 5575 5573 5571 5569 5567 5566 5564 5563 5563 5562 5562 5562
5663 5659 5654 5649 5646 5642 5640 5638 5634 5629 5623 5617 5613 5615 5615 5613 5605 5600 5602 5604 5604 5602 5600 5597 5593 5590 5586 5583 5578 5573 5569 5566 5564 5562 5560 5558 5556 5555 5554 5554 5553 5553 5553
5659 5656 5651 5645 5640 5636 5633 5629 5626 5622 5618 5613 5608 5606 5603 5602 5603 5595 5590 5592 5593 5594 5592 5590 5586 5582 5579 5575 5570 5565 5560 5556 5554 5551 5549 5547 5546 5545 5545 5544 5543 5543 5542
5650 5649 5645 5641 5636 5631 5626 5622 5618 5614 5610 5606 5601 5597 5594 5591 5591 5589 5586 5581 5581 5582 5581 5580 5577 5574 5570 5565 5561 5555 5550 5546 5543 5540 5538 5536 5535 5534 5533 5532 5532 5531 5531
5639 5639 5637 5634 5630 5625 5620 5614 5609 5605 5601 5597 5594 5590 5587 5585 5583 5582 5579 5574 5570 5568 5568 5566 5565 5562 5558 5554 5549 5544 5539 5534 5531 5529 5527 5525 5524 5522 5521 5520 5519 5519 5519
5629 5629 5627 5625 5622 5617 5611 5605 5599 5595 5590 5586 5583 5579 5577 5576 5573 5572 5570 5563 5555 5550 5551 5551 5550 5548 5545 5540 5535 5530 5526 5522 5519 5516 5515 5513 5511 5509 5508 5507 5507 5507 5506
5619 5617 5615 5612 5609 5605 5599 5592 5586 5581 5576 5572 5569 5565 5563 5562 5561 5559 5558 5556 5550 5540 5537 5535 5534 5533 5531 5526 5521 5516 5513 5510 5507 5504 5503 5501 5500 5497 5496 5495 5495 5494 5493
5605 5603 5600 5597 5593 5589 5582 5575 5569 5563 5558 5555 5552 5549 5547 5544 5543 5543 5543 5542 5542 5539 5529 5523 5519 5517 5515 5511 5507 5503 5500 5498 5495 5493 5491 5489 5487 5485 5483 5482 5481 5481 5480
5590 5587 5584 5580 5574 5569 5562 5555 5548 5542 5537 5534 5531 5530 5527 5525 5525 5524 5524 5525 5525 5524 5518 5508 5505 5502 5499 5496 5493 5489 5487 5485 5482 5480 5478 5476 5475 5473 5471 5469 5467 5466 5465
5573 5570 5566 5561 5555 5547 5540 5534 5527 5522 5517 5513 5510 5508 5506 5505 5505 5506 5507 5508 5508 5508 5506 5498 5493 5488 5484 5482 5479 5476 5473 5471 5468 5466 5464 5463 5461 5459 5457 5455 5453 5452 5450
5556 5552 5547 5541 5534 5526 5519 5512 5507 5502 5497 5494 5492 5490 5488 5488 5487 5489 5490 5491 5491 5492 5493 5490 5483 5478 5472 5469 5466 5462 5460 5457 5454 5451 5450 5449 5447 5445 5442 5440 5438 5437 5435
5540 5534 5528 5522 5515 5508 5501 5495 5489 5484 5480 5477 5475 5473 5472 5472 5473 5474 5475 5475 5476 5477 5476 5475 5471 5465 5461 5457 5453 5449 5447 5443 5439 5437 5435 5433 5431 5428 5426 5424 5422 5420 5418
5524 5518 5512 5506 5500 5493 5487 5480 5474 5469 5465 5461 5458 5458 5457 5458 5459 5461 5461 5461 5462 5462 5461 5459 5457 5453 5450 5446 5442 5438 5433 5428 5425 5423 5420 5417 5414 5411 5408 5406 5403 5402 5400
5510 5504 5499 5493 5487 5481 5475 5469 5463 5457 5453 5449 5446 5445 5444 5445 5448 5449 5449 5450 5450 5449 5448 5446 5444 5441 5437 5434 5430 5425 5418 5412 5407 5407 5404 5400 5396 5394 5391 5388 5386 5384 5383
5497 5492 5486 5481 5475 5470 5465 5459 5453 5447 5442 5439 5437 5435 5435 5435 5435 5436 5438 5438 5438 5438 5437 5434 5431 5427 5424 5420 5415 5409 5403 5397 5392 5389 5386 5385 5381 5378 5375 5371 5369 5367 5365
5484 5479 5474 5469 5465 5460 5455 5450 5445 5439 5435 5432 5429 5428 5427 5426 5427 5427 5428 5428 5427 5427 5425 5423 5419 5415 5411 5407 5402 5396 5389 5383 5378 5374 5371 5368 5367 5364 5360 5356 5353 5351 5349
5473 5468 5463 5458 5454 5450 5447 5443 5439 5434 5430 5427 5425 5423 5422 5421 5422 5422 5421 5419 5418 5417 5416 5413 5409 5404 5400 5395 5390 5383 5374 5367 5360 5358 5355 5351 5350 5349 5346 5343 5340 5337 5335
5463 5459 5454 5450 5446 5443 5441 5438 5434 5430 5426 5423 5421 5419 5418 5417 5416 5416 5413 5411 5409 5407 5404 5400 5396 5392 5387 5382 5377 5370 5360 5349 5341 5338 5338 5334 5331 5329 5330 5330 5328 5325 5324